Satellite: AO-40 Catalog number: 26609 Epoch time: 03058.16687500 Element set: 312 Inclination: 8.1401 deg RA of node: 62.4789 deg Eccentricity: 0.7944119 Arg of perigee: 148.1042 deg Mean anomaly: 305.2492 deg Mean motion: 1.25596203 rev/day Decay rate: -2.67000e-06 rev/day^2 Epoch rev: 1069 Checksum: 287